RWL140 EDLW-EDLN

Flight info

Callsign RWL140
Flight time 0h 47m
Altitude 5000
Route BAMSU2Q BAMSU T295 GESBI GESBI3J
Aircraft PA44/L-SDFGRY/S

Departure

Time 2026-05-06 14:47
Airport Dortmund Airport (EDLW)

Arrival

Time 2026-05-06 15:34
Airport Mönchengladbach Airport (EDLN)
Time Latitude Longitude Altitude Speed Heading
2026-05-06 14:47 51.52471 7.32487 4982 ft 159 kts 86°
2026-05-06 14:47 51.52476 7.34252 4984 ft 158 kts 87°
2026-05-06 14:47 51.52482 7.36013 4983 ft 158 kts 87°
2026-05-06 14:47 51.52487 7.37770 4979 ft 157 kts 87°
2026-05-06 14:48 51.52494 7.39528 4978 ft 157 kts 87°
2026-05-06 14:48 51.52499 7.41278 4978 ft 157 kts 87°
2026-05-06 14:48 51.52504 7.43033 4978 ft 157 kts 87°
2026-05-06 14:48 51.52508 7.44764 4977 ft 157 kts 87°
2026-05-06 14:49 51.52511 7.46522 4977 ft 158 kts 87°
2026-05-06 14:49 51.52515 7.48285 4978 ft 158 kts 87°
2026-05-06 14:49 51.52519 7.50052 4979 ft 158 kts 87°
2026-05-06 14:49 51.52521 7.51819 4978 ft 158 kts 88°
2026-05-06 14:50 51.52524 7.53585 4977 ft 158 kts 87°
2026-05-06 14:50 51.52547 7.55347 4975 ft 158 kts 86°
2026-05-06 14:50 51.52574 7.57111 4981 ft 158 kts 86°
2026-05-06 14:50 51.52603 7.58878 4982 ft 159 kts 86°
2026-05-06 14:51 51.52634 7.60651 4980 ft 159 kts 86°
2026-05-06 14:51 51.52665 7.62434 4981 ft 160 kts 86°
2026-05-06 14:51 51.52719 7.64214 4979 ft 158 kts 77°
2026-05-06 14:51 51.53131 7.65834 4976 ft 156 kts 59°
2026-05-06 14:52 51.53670 7.67346 4984 ft 156 kts 56°
2026-05-06 14:52 51.54241 7.68811 4975 ft 152 kts 55°
2026-05-06 14:52 51.54793 7.70229 4967 ft 147 kts 55°
2026-05-06 14:52 51.55461 7.71415 4965 ft 140 kts 30°
2026-05-06 14:53 51.56365 7.71468 4963 ft 134 kts 330°
2026-05-06 14:53 51.56788 7.70222 4967 ft 135 kts 269°
2026-05-06 14:53 51.56283 7.68990 4972 ft 140 kts 215°
2026-05-06 14:53 51.55438 7.68222 4975 ft 139 kts 213°
2026-05-06 14:54 51.54687 7.67282 4966 ft 136 kts 235°
2026-05-06 14:54 51.54145 7.66038 4971 ft 136 kts 237°
2026-05-06 14:54 51.53591 7.64809 4995 ft 136 kts 235°
2026-05-06 14:54 51.52992 7.63652 4995 ft 137 kts 233°
2026-05-06 14:55 51.52390 7.62471 4996 ft 137 kts 235°
2026-05-06 14:55 51.51818 7.61236 4923 ft 139 kts 236°
2026-05-06 14:55 51.51243 7.59994 4794 ft 139 kts 236°
2026-05-06 14:55 51.50666 7.58752 4669 ft 139 kts 236°
2026-05-06 14:56 51.50090 7.57508 4543 ft 138 kts 236°
2026-05-06 14:56 51.49493 7.56299 4411 ft 139 kts 234°
2026-05-06 14:56 51.48886 7.55082 4278 ft 140 kts 234°
2026-05-06 14:56 51.48272 7.53864 4149 ft 141 kts 234°
2026-05-06 14:57 51.47654 7.52644 4022 ft 141 kts 234°
2026-05-06 14:57 51.47038 7.51413 3891 ft 141 kts 234°
2026-05-06 14:57 51.46420 7.50180 3760 ft 142 kts 234°
2026-05-06 14:57 51.45800 7.48940 3637 ft 143 kts 234°
2026-05-06 14:58 51.45169 7.47692 3511 ft 146 kts 234°
2026-05-06 14:58 51.44544 7.46431 3390 ft 147 kts 234°
2026-05-06 14:58 51.43902 7.45149 3277 ft 148 kts 234°
2026-05-06 14:58 51.43249 7.43850 3232 ft 149 kts 235°
2026-05-06 14:59 51.42869 7.42388 3201 ft 142 kts 276°
2026-05-06 14:59 51.43351 7.41165 3173 ft 131 kts 336°
2026-05-06 14:59 51.44207 7.41246 3161 ft 127 kts 27°
2026-05-06 14:59 51.44872 7.42160 3036 ft 124 kts 38°
2026-05-06 15:00 51.45402 7.43224 2939 ft 119 kts 55°
2026-05-06 15:00 51.45808 7.44258 2803 ft 103 kts 55°
2026-05-06 15:00 51.46168 7.45210 2664 ft 98 kts 56°
2026-05-06 15:00 51.46502 7.46121 2534 ft 91 kts 55°
2026-05-06 15:01 51.46808 7.46958 2421 ft 87 kts 56°
2026-05-06 15:01 51.47113 7.47824 2307 ft 90 kts 55°
2026-05-06 15:01 51.47423 7.48705 2184 ft 93 kts 56°
2026-05-06 15:01 51.47746 7.49620 2049 ft 95 kts 56°
2026-05-06 15:02 51.48072 7.50541 1919 ft 95 kts 56°
2026-05-06 15:02 51.48394 7.51459 1790 ft 92 kts 56°
2026-05-06 15:02 51.48704 7.52338 1669 ft 90 kts 56°
2026-05-06 15:02 51.48904 7.52904 1583 ft 86 kts 56°
2026-05-06 15:03 51.49198 7.53735 1462 ft 85 kts 56°
2026-05-06 15:03 51.49485 7.54563 1333 ft 84 kts 56°
2026-05-06 15:03 51.49779 7.55379 1207 ft 85 kts 56°
2026-05-06 15:03 51.50064 7.56202 1088 ft 84 kts 56°
2026-05-06 15:04 51.50345 7.57004 970 ft 81 kts 57°
2026-05-06 15:04 51.50622 7.57786 859 ft 81 kts 57°
2026-05-06 15:04 51.50901 7.58576 751 ft 81 kts 56°
2026-05-06 15:04 51.51177 7.59362 646 ft 81 kts 56°
2026-05-06 15:05 51.51458 7.60149 546 ft 80 kts 55°
2026-05-06 15:05 51.51729 7.60926 548 ft 81 kts 55°
2026-05-06 15:05 51.52016 7.61707 838 ft 85 kts 56°
2026-05-06 15:05 51.52336 7.62617 1168 ft 104 kts 56°
2026-05-06 15:06 51.52717 7.63673 1587 ft 114 kts 56°
2026-05-06 15:06 51.53123 7.64815 1963 ft 117 kts 57°
2026-05-06 15:06 51.53529 7.65976 2320 ft 126 kts 57°
2026-05-06 15:06 51.53959 7.67084 2965 ft 103 kts 53°
2026-05-06 15:07 51.54366 7.68099 3286 ft 119 kts 53°
2026-05-06 15:07 51.54851 7.69281 3497 ft 132 kts 53°
2026-05-06 15:07 51.55308 7.70394 4136 ft 109 kts 52°
2026-05-06 15:07 51.55763 7.71520 4247 ft 126 kts 56°
2026-05-06 15:08 51.56182 7.72708 4616 ft 119 kts 62°
2026-05-06 15:08 51.56183 7.73985 4935 ft 121 kts 112°
2026-05-06 15:08 51.55634 7.74988 5088 ft 131 kts 148°
2026-05-06 15:08 51.54691 7.75385 4993 ft 149 kts 174°
2026-05-06 15:09 51.53680 7.75941 4973 ft 157 kts 155°
2026-05-06 15:09 51.52690 7.76726 4979 ft 160 kts 154°
2026-05-06 15:09 51.51680 7.77493 4972 ft 160 kts 160°
2026-05-06 15:09 51.50599 7.77570 4953 ft 157 kts 198°
2026-05-06 15:10 51.49738 7.76601 4953 ft 151 kts 236°
2026-05-06 15:10 51.49245 7.75136 4952 ft 150 kts 236°
2026-05-06 15:10 51.48452 7.74017 4956 ft 154 kts 219°
2026-05-06 15:10 51.47616 7.72948 4961 ft 154 kts 223°
2026-05-06 15:11 51.46812 7.71802 4961 ft 155 kts 225°
2026-05-06 15:11 51.46018 7.70637 4964 ft 155 kts 225°
2026-05-06 15:11 51.45224 7.69462 4961 ft 155 kts 225°
2026-05-06 15:11 51.44427 7.68288 4966 ft 156 kts 225°
2026-05-06 15:12 51.43627 7.67110 4965 ft 156 kts 225°
2026-05-06 15:12 51.42826 7.65929 4977 ft 157 kts 225°
2026-05-06 15:12 51.42024 7.64747 4964 ft 157 kts 225°
2026-05-06 15:12 51.41221 7.63565 4967 ft 157 kts 225°
2026-05-06 15:13 51.40416 7.62379 4969 ft 158 kts 225°
2026-05-06 15:13 51.39605 7.61188 4968 ft 158 kts 225°
2026-05-06 15:13 51.38795 7.59995 4966 ft 158 kts 225°
2026-05-06 15:13 51.37982 7.58805 4976 ft 159 kts 225°
2026-05-06 15:14 51.37167 7.57608 4968 ft 159 kts 225°
2026-05-06 15:14 51.36353 7.56411 4972 ft 159 kts 225°
2026-05-06 15:14 51.35535 7.55212 4967 ft 161 kts 225°
2026-05-06 15:14 51.34816 7.53874 4961 ft 158 kts 246°
2026-05-06 15:15 51.34450 7.52227 4960 ft 157 kts 255°
2026-05-06 15:15 51.34083 7.50582 4968 ft 158 kts 251°
2026-05-06 15:15 51.33664 7.48947 4978 ft 160 kts 250°
2026-05-06 15:15 51.33227 7.47303 4971 ft 162 kts 250°
2026-05-06 15:16 51.32780 7.45643 4979 ft 163 kts 250°
2026-05-06 15:16 51.32333 7.43977 4973 ft 163 kts 250°
2026-05-06 15:16 51.31892 7.42329 4957 ft 160 kts 250°
2026-05-06 15:16 51.31456 7.40705 4963 ft 158 kts 249°
2026-05-06 15:17 51.31028 7.39113 4959 ft 157 kts 249°
2026-05-06 15:17 51.30597 7.37509 4961 ft 156 kts 249°
2026-05-06 15:17 51.30170 7.35917 4959 ft 156 kts 249°
2026-05-06 15:17 51.29739 7.34325 4963 ft 156 kts 249°
2026-05-06 15:18 51.29313 7.32742 4956 ft 154 kts 249°
2026-05-06 15:18 51.28890 7.31167 4960 ft 154 kts 250°
2026-05-06 15:18 51.28462 7.29587 4963 ft 156 kts 249°
2026-05-06 15:18 51.28034 7.27994 4962 ft 156 kts 249°
2026-05-06 15:19 51.27602 7.26398 4970 ft 157 kts 249°
2026-05-06 15:19 51.27170 7.24796 4968 ft 157 kts 249°
2026-05-06 15:19 51.26737 7.23201 4967 ft 156 kts 249°
2026-05-06 15:19 51.26309 7.21614 4972 ft 155 kts 249°
2026-05-06 15:20 51.25878 7.20029 4970 ft 156 kts 249°
2026-05-06 15:20 51.25448 7.18442 4972 ft 156 kts 249°
2026-05-06 15:20 51.25018 7.16852 4974 ft 157 kts 249°
2026-05-06 15:20 51.24586 7.15262 4972 ft 154 kts 249°
2026-05-06 15:21 51.24166 7.13714 4884 ft 151 kts 250°
2026-05-06 15:21 51.23751 7.12191 4756 ft 149 kts 250°
2026-05-06 15:21 51.23339 7.10678 4623 ft 148 kts 250°
2026-05-06 15:21 51.22931 7.09170 4501 ft 148 kts 250°
2026-05-06 15:22 51.22515 7.07643 4371 ft 151 kts 250°
2026-05-06 15:22 51.22093 7.06091 4247 ft 154 kts 250°
2026-05-06 15:22 51.21665 7.04525 4120 ft 154 kts 250°
2026-05-06 15:22 51.21235 7.02951 3991 ft 155 kts 249°
2026-05-06 15:23 51.20802 7.01366 3865 ft 156 kts 250°
2026-05-06 15:23 51.20370 6.99787 3740 ft 155 kts 250°
2026-05-06 15:23 51.19942 6.98224 3605 ft 152 kts 250°
2026-05-06 15:23 51.19522 6.96681 3471 ft 151 kts 250°
2026-05-06 15:24 51.19112 6.95188 3337 ft 147 kts 250°
2026-05-06 15:24 51.18708 6.93709 3216 ft 145 kts 250°
2026-05-06 15:24 51.18300 6.92223 3088 ft 147 kts 250°
2026-05-06 15:24 51.17889 6.90723 2960 ft 148 kts 250°
2026-05-06 15:25 51.17476 6.89212 2841 ft 149 kts 250°
2026-05-06 15:25 51.17057 6.87694 2704 ft 150 kts 250°
2026-05-06 15:25 51.16638 6.86171 2575 ft 149 kts 250°
2026-05-06 15:25 51.16222 6.84655 2442 ft 150 kts 250°
2026-05-06 15:26 51.15805 6.83138 2315 ft 149 kts 250°
2026-05-06 15:26 51.15391 6.81641 2179 ft 147 kts 250°
2026-05-06 15:26 51.14989 6.80181 2047 ft 145 kts 250°
2026-05-06 15:26 51.14583 6.78710 1971 ft 139 kts 250°
2026-05-06 15:27 51.14203 6.77336 1963 ft 133 kts 250°
2026-05-06 15:27 51.13841 6.76026 1957 ft 129 kts 251°
2026-05-06 15:27 51.13485 6.74732 1952 ft 121 kts 251°
2026-05-06 15:27 51.13158 6.73555 1939 ft 115 kts 252°
2026-05-06 15:28 51.12834 6.72377 1933 ft 117 kts 251°
2026-05-06 15:28 51.12686 6.71164 1916 ft 110 kts 286°
2026-05-06 15:28 51.13085 6.70186 1925 ft 105 kts 316°
2026-05-06 15:28 51.13553 6.69294 1954 ft 105 kts 313°
2026-05-06 15:29 51.14009 6.68398 1979 ft 104 kts 313°
2026-05-06 15:29 51.14461 6.67502 2005 ft 104 kts 313°
2026-05-06 15:29 51.14911 6.66607 2024 ft 104 kts 313°
2026-05-06 15:29 51.15364 6.65707 2022 ft 105 kts 313°
2026-05-06 15:30 51.15818 6.64801 2025 ft 105 kts 313°
2026-05-06 15:30 51.16274 6.63894 2023 ft 105 kts 313°
2026-05-06 15:30 51.16731 6.62985 2015 ft 106 kts 313°
2026-05-06 15:30 51.17168 6.62110 1909 ft 96 kts 313°
2026-05-06 15:31 51.17584 6.61290 1785 ft 95 kts 314°
2026-05-06 15:31 51.17996 6.60472 1664 ft 95 kts 314°
2026-05-06 15:31 51.18412 6.59651 1536 ft 96 kts 314°
2026-05-06 15:32 51.19252 6.57984 1263 ft 97 kts 314°
2026-05-06 15:32 51.19681 6.57156 1145 ft 96 kts 315°
2026-05-06 15:32 51.20114 6.56358 1015 ft 96 kts 314°
2026-05-06 15:32 51.20528 6.55514 886 ft 97 kts 310°
2026-05-06 15:33 51.20927 6.54644 769 ft 97 kts 310°
2026-05-06 15:33 51.21336 6.53805 653 ft 95 kts 311°
2026-05-06 15:33 51.21758 6.52985 512 ft 95 kts 312°
2026-05-06 15:33 51.22164 6.52173 352 ft 90 kts 312°
2026-05-06 15:34 51.22525 6.51465 207 ft 76 kts 313°
2026-05-06 15:34 51.22840 6.50832 121 ft 66 kts 310°
2026-05-06 15:34 51.23058 6.50406 123 ft 24 kts 308°
2026-05-06 15:34 51.23123 6.50276 124 ft 10 kts 308°
2026-05-06 15:35 51.23111 6.50182 124 ft 8 kts 223°
2026-05-06 15:35 51.23079 6.50139 123 ft 5 kts 220°
2026-05-06 15:35 51.23086 6.50082 125 ft 8 kts 308°
2026-05-06 15:35 51.23123 6.50009 125 ft 9 kts 308°
2026-05-06 15:36 51.23162 6.49930 125 ft 5 kts 305°
2026-05-06 15:36 51.23150 6.49865 123 ft 8 kts 250°
2026-05-06 15:36 51.23185 6.49781 125 ft 9 kts 307°
2026-05-06 15:36 51.23187 6.49733 125 ft 6 kts 160°
2026-05-06 15:37 51.23173 6.49757 125 ft 0 kts 122°